This demonstration page uses our WeatherBlox Daily Observations layout. Learn more.

38.89511, -77.03637

Hourly Observations for September 21, 2015

Temp ( °F °C ) Dew Point ( °F °C ) Humidity (%) Winds ( mph kmh ) Pressure ( in mb ) Visibility ( mi km ) Precip ( " mm )
12:52 am 00:52 Cloudy 70 21 48 9 46 46 NNE 9 15 30.09 1019 10 16.09344 0 0
1:52 am 01:52 Cloudy 66 19 46 8 49 49 NNE 13 20 30.09 1019 10 16.09344 0 0
2:52 am 02:52 Mostly Cloudy 66 19 46 8 49 49 NNE 12 19 30.09 1019 10 16.09344 0 0
3:52 am 03:52 Cloudy 64 18 48 9 56 56 NNE 10 17 30.06 1018 10 16.09344 0 0
4:52 am 04:52 Cloudy 64 18 48 9 56 56 NNE 10 17 30.09 1019 10 16.09344 0 0
5:52 am 05:52 Cloudy 64 18 48 9 56 56 NNE 9 15 30.09 1019 10 16.09344 0 0
6:52 am 06:52 Cloudy 64 18 50 10 60 60 NNE 10 17 30.12 1020 10 16.09344 0 0
7:52 am 07:52 Cloudy 64 18 52 11 64 64 NE 9 15 30.12 1020 9 14.484096 0 0
8:52 am 08:52 Cloudy 66 19 52 11 60 60 NNE 9 15 30.15 1021 9 14.484096 0.001 0.001
9:17 am 09:17 Cloudy 66 19 52 11 60 60 NNE 12 19 30.18 1022 10 16.09344 0 0
9:52 am 09:52 Cloudy 66 19 52 11 60 60 NNE 13 20 30.18 1022 10 16.09344 0 0
10:44 am 10:44 Cloudy 66 19 54 12 64 64 NE 10 17 30.18 1022 10 16.09344 0 0
10:52 am 10:52 Cloudy 66 19 54 12 64 64 NE 9 15 30.18 1022 10 16.09344 0 0
11:52 am 11:52 Cloudy 70 21 54 12 57 57 NNE 8 13 30.18 1022 10 16.09344 0 0
12:22 pm 12:22 Cloudy 70 21 55 13 60 60 NE 7 11 30.18 1022 10 16.09344 0 0
12:52 pm 12:52 Cloudy 70 21 55 13 60 60 NE 13 20 30.18 1022 10 16.09344 0 0
1:49 pm 13:49 Cloudy 70 21 55 13 60 60 NE 12 19 30.15 1021 10 16.09344 0 0
1:52 pm 13:52 Cloudy 70 21 55 13 60 60 NE 14 22 30.15 1021 10 16.09344 0 0
2:05 pm 14:05 Cloudy with Light Rain 68 20 55 13 64 64 ENE 12 19 30.15 1021 10 16.09344 0.001 0.001
2:37 pm 14:37 Cloudy with Light Rain 68 20 57 14 69 69 NNE 12 19 30.15 1021 10 16.09344 0.001 0.001
2:52 pm 14:52 Cloudy 70 21 57 14 64 64 NNE 12 19 30.15 1021 8 12.874752 0.001 0.001
3:42 pm 15:42 Cloudy 68 20 57 14 69 69 ENE 12 19 30.15 1021 10 16.09344 0 0
3:52 pm 15:52 Cloudy with Light Drizzle 70 21 57 14 64 64 NE 10 17 30.15 1021 6 9.656064 0.001 0.001
4:17 pm 16:17 Cloudy 70 21 57 14 64 64 NE 12 19 30.15 1021 10 16.09344 0.001 0.001
4:34 pm 16:34 Cloudy with Light Rain 68 20 57 14 69 69 ENE 10 17 30.15 1021 10 16.09344 0 0
4:52 pm 16:52 Cloudy with Light Rain 66 19 59 15 78 78 ENE 13 20 30.15 1021 10 16.09344 0.01 0.254
5:52 pm 17:52 Cloudy with Light Rain 64 18 61 16 88 88 NNE 12 19 30.15 1021 6 9.656064 0.03 0.762
6:52 pm 18:52 Cloudy with Light Rain 63 17 61 16 94 94 NNE 13 20 30.18 1022 8 12.874752 0.08 2.032
7:52 pm 19:52 Cloudy with Light Rain 63 17 61 16 94 94 N 9 15 30.18 1022 10 16.09344 0.03 0.762
8:52 pm 20:52 Cloudy with Light Rain 63 17 61 16 94 94 NNE 8 13 30.18 1022 10 16.09344 0.03 0.762
9:52 pm 21:52 Cloudy with Light Rain 63 17 61 16 94 94 N 8 13 30.21 1023 10 16.09344 0.01 0.254
10:52 pm 22:52 Cloudy with Light Rain 63 17 61 16 94 94 NNE 8 13 30.21 1023 10 16.09344 0.03 0.762
11:52 pm 23:52 Cloudy 64 18 61 16 88 88 NNE 10 17 30.21 1023 10 16.09344 0.01 0.254

Powered by AerisWeather